Eagle River, WI

12:50 AM CDT on July 22, 2017 (GMT -0500)
Eagle River Union

Weather History for KEGV - June, 2013

Change the Weather History Date:

Friday, June 7, 2013

  Actual Average Record
Temperature  
Mean Temperature 52 °F -  
Max Temperature 64 °F 69 °F 92 °F (2011)
Min Temperature 40 °F 45 °F 35 °F (1998)
Degree Days  
Heating Degree Days 13    
Growing Degree Days 2 (Base 50)    
Moisture  
Dew Point 45 °F    
Average Humidity 79    
Maximum Humidity 100    
Minimum Humidity 47    
Precipitation  
Precipitation 0.00 in - - ()
Sea Level Pressure  
Sea Level Pressure 30.01 in    
Wind  
Wind Speed 1 mph (West)    
Max Wind Speed 6 mph    
Max Gust Speed -    
Visibility 10 miles    
Events Rain    
Averages and records for this station are not official NWS values.
T = Trace of Precipitation, MM = Missing Value Source: NWS Daily Summary

Daily Weather History Graph

Daily Weather History Graph

Search for Another Location

Airport or City:

Trip Planner

Search our weather history database for the weather conditions in past years. The results will help you decide how hot, cold, wet, or windy it might be!

Date:

Astronomy

Jun. 07, 2013 Rise Set
Actual Time 5:07 AM CDT 8:45 PM CDT
Civil Twilight 4:29 AM CDT 9:23 PM CDT
Nautical Twilight 3:38 AM CDT 10:13 PM CDT
Astronomical Twilight 2:30 AM CDT 11:22 PM CDT
Moon 4:34 AM CDT (6/7) 7:55 PM CDT (6/7)
Length of Visible Light 16h 53m
Length of Day
15h 37m
Waning Crescent, 1% of the Moon is Illuminated
Jun 7
Waning Crescent
Jun 8
New
Jun 16
First Quarter
Jun 23
Full
Jun 29
Last Quarter

Hourly Weather History & Observations

Time (CDT) Temp. Dew Point Humidity Pressure Visibility Wind Dir Wind Speed Gust Speed Precip Events Conditions
12:15 AM 45.9 °F 44.6 °F 95% 30.03 in 10.0 mi Calm Calm - N/A   Scattered Clouds
12:35 AM 44.8 °F 44.1 °F 97% 30.03 in 10.0 mi Calm Calm - N/A   Scattered Clouds
12:55 AM 44.6 °F 44.1 °F 98% 30.03 in 10.0 mi Calm Calm - N/A   Clear
1:15 AM 45.0 °F 43.7 °F 95% 30.03 in 10.0 mi Calm Calm - N/A   Clear
1:35 AM 44.1 °F 43.2 °F 97% 30.02 in 10.0 mi Calm Calm - N/A   Scattered Clouds
1:55 AM 43.3 °F 43.3 °F 100% 30.02 in 10.0 mi Calm Calm - N/A   Mostly Cloudy
2:15 AM 43.3 °F 42.6 °F 97% 30.02 in 7.0 mi Calm Calm - N/A   Mostly Cloudy
2:35 AM 42.8 °F 42.8 °F 100% 30.02 in 10.0 mi Calm Calm - N/A   Scattered Clouds
2:55 AM 42.3 °F 42.3 °F 100% 30.01 in 10.0 mi Calm Calm - N/A   Clear
3:15 AM 41.9 °F 41.9 °F 100% 30.01 in 10.0 mi Calm Calm - N/A   Scattered Clouds
3:35 AM 41.4 °F 41.4 °F 100% 30.02 in 10.0 mi Calm Calm - N/A   Mostly Cloudy
3:55 AM 41.5 °F 41.5 °F 100% 30.02 in 10.0 mi Calm Calm - N/A   Mostly Cloudy
4:35 AM 40.1 °F 40.1 °F 100% 30.02 in 10.0 mi Calm Calm - N/A   Overcast
4:55 AM 41.2 °F 41.2 °F 100% 30.02 in 10.0 mi Calm Calm - N/A   Overcast
5:15 AM 41.5 °F 41.5 °F 100% 30.03 in 10.0 mi Calm Calm - N/A   Overcast
5:35 AM 41.9 °F 41.9 °F 100% 30.03 in 10.0 mi Calm Calm - N/A   Overcast
5:55 AM 42.4 °F 42.4 °F 100% 30.03 in 10.0 mi Calm Calm - N/A   Overcast
6:15 AM 43.7 °F 43.7 °F 100% 30.03 in 10.0 mi Calm Calm - N/A   Overcast
6:35 AM 45.0 °F 44.2 °F 97% 30.04 in 10.0 mi Calm Calm - N/A   Overcast
6:55 AM 46.2 °F 43.3 °F 90% 30.04 in 10.0 mi Calm Calm - N/A   Overcast
7:15 AM 47.3 °F 43.9 °F 88% 30.04 in 10.0 mi Calm Calm - N/A   Overcast
7:35 AM 48.2 °F 44.2 °F 86% 30.04 in 10.0 mi Calm Calm - N/A   Overcast
7:55 AM 49.1 °F 42.6 °F 78% 30.04 in 10.0 mi Calm Calm - N/A   Overcast
8:15 AM 50.4 °F 41.7 °F 72% 30.04 in 10.0 mi Calm Calm - N/A   Overcast
8:35 AM 51.4 °F 40.8 °F 67% 30.05 in 10.0 mi Calm Calm - N/A   Mostly Cloudy
8:55 AM 51.8 °F 41.0 °F 67% 30.05 in 10.0 mi Calm Calm - N/A Rain Light Rain
9:15 AM 51.8 °F 41.9 °F 69% 30.05 in 10.0 mi Calm Calm - N/A Rain Light Rain
9:35 AM 52.5 °F 42.6 °F 69% 30.05 in 10.0 mi Calm Calm - N/A Rain Light Rain
9:55 AM 52.9 °F 43.0 °F 69% 30.05 in 10.0 mi Calm Calm - N/A Rain Light Rain
10:15 AM 53.8 °F 44.1 °F 70% 30.05 in 10.0 mi Calm Calm - N/A Rain Light Rain
10:35 AM 54.0 °F 44.8 °F 71% 30.05 in 10.0 mi Calm Calm - N/A   Overcast
10:55 AM 54.9 °F 44.4 °F 68% 30.05 in 10.0 mi SSE 4.6 mph - N/A   Overcast
11:15 AM 55.6 °F 44.2 °F 66% 30.04 in 10.0 mi SSE 3.5 mph - N/A   Overcast
11:35 AM 55.4 °F 44.2 °F 66% 30.04 in 10.0 mi South 3.5 mph - N/A   Overcast
11:55 AM 55.4 °F 44.2 °F 66% 30.04 in 10.0 mi Calm Calm - N/A   Overcast
12:15 PM 55.4 °F 43.7 °F 65% 30.03 in 10.0 mi Calm Calm - N/A Rain Light Rain
12:35 PM 56.1 °F 44.1 °F 64% 30.03 in 10.0 mi Calm Calm - N/A Rain Light Rain
12:55 PM 56.3 °F 43.0 °F 61% 30.03 in 10.0 mi Calm Calm - N/A Rain Light Rain
1:15 PM 56.8 °F 43.7 °F 61% 30.02 in 10.0 mi Calm Calm - N/A   Overcast
1:35 PM 57.0 °F 43.9 °F 61% 30.02 in 10.0 mi Calm Calm - N/A   Overcast
1:55 PM 58.1 °F 44.4 °F 60% 30.01 in 10.0 mi Calm Calm - N/A   Overcast
2:15 PM 59.4 °F 43.9 °F 57% 30.01 in 10.0 mi Calm Calm - N/A   Overcast
2:35 PM 59.7 °F 43.9 °F 56% 30.00 in 10.0 mi Calm Calm - N/A   Overcast
2:55 PM 60.3 °F 43.9 °F 55% 30.00 in 10.0 mi Calm Calm - N/A   Overcast
3:15 PM 60.8 °F 42.8 °F 52% 29.99 in 10.0 mi Calm Calm - N/A   Overcast
3:35 PM 61.9 °F 43.9 °F 52% 29.99 in 10.0 mi WSW 4.6 mph - N/A   Overcast
3:55 PM 62.6 °F 42.1 °F 47% 29.98 in 10.0 mi West 4.6 mph - N/A   Overcast
4:15 PM 63.1 °F 42.6 °F 47% 29.97 in 10.0 mi West 5.8 mph - N/A   Overcast
4:35 PM 62.8 °F 43.9 °F 50% 29.97 in 10.0 mi West 5.8 mph - N/A   Overcast
4:55 PM 63.3 °F 43.5 °F 48% 29.97 in 10.0 mi West 3.5 mph - N/A   Overcast
5:15 PM 64.2 °F 44.1 °F 48% 29.96 in 10.0 mi WNW 5.8 mph - N/A   Overcast
5:35 PM 62.2 °F 44.8 °F 53% 29.97 in 10.0 mi West 4.6 mph - N/A   Overcast
5:55 PM 61.7 °F 45.1 °F 55% 29.96 in 10.0 mi West 4.6 mph - N/A   Overcast
6:15 PM 61.2 °F 46.4 °F 58% 29.96 in 10.0 mi NW 4.6 mph - N/A   Overcast
6:35 PM 60.8 °F 46.0 °F 58% 29.96 in 10.0 mi NW 3.5 mph - N/A   Overcast
6:55 PM 59.9 °F 46.6 °F 61% 29.96 in 10.0 mi Calm Calm - N/A   Overcast
7:15 PM 59.4 °F 47.5 °F 65% 29.96 in 10.0 mi Calm Calm - N/A   Mostly Cloudy
7:35 PM 57.0 °F 49.3 °F 75% 29.96 in 10.0 mi Calm Calm - N/A   Scattered Clouds
7:55 PM 55.2 °F 50.0 °F 83% 29.96 in 10.0 mi Calm Calm - N/A   Scattered Clouds
8:15 PM 54.3 °F 49.3 °F 83% 29.96 in 10.0 mi Calm Calm - N/A   Mostly Cloudy
8:35 PM 53.1 °F 51.3 °F 94% 29.96 in 10.0 mi Calm Calm - N/A   Overcast
8:55 PM 52.7 °F 51.1 °F 94% 29.96 in 10.0 mi Calm Calm - N/A   Overcast
9:15 PM 51.3 °F 50.9 °F 99% 29.96 in 10.0 mi Calm Calm - N/A   Mostly Cloudy
9:35 PM 49.6 °F 49.6 °F 100% 29.96 in 10.0 mi Calm Calm - N/A   Clear
9:55 PM 50.0 °F 49.6 °F 99% 29.96 in 10.0 mi Calm Calm - N/A   Scattered Clouds
10:15 PM 48.4 °F 48.4 °F 100% 29.97 in 7.0 mi Calm Calm - N/A   Mostly Cloudy
10:35 PM 48.6 °F 48.6 °F 100% 29.96 in 7.0 mi Calm Calm - N/A   Scattered Clouds
10:55 PM 46.9 °F 46.9 °F 100% 29.96 in 2.0 mi Calm Calm - N/A   Overcast
11:15 PM 47.3 °F 47.3 °F 100% 29.96 in 1.5 mi Calm Calm - N/A   Overcast
11:35 PM 48.4 °F 48.4 °F 100% 29.96 in 5.0 mi Calm Calm - N/A   Mostly Cloudy
11:55 PM 48.4 °F 48.4 °F 100% 29.96 in 10.0 mi Calm Calm - N/A   Overcast